940  
ASUS41 KAKQ 180415  
RWRAKQ  
 
REGIONAL WEATHER ROUNDUP  
NATIONAL WEATHER SERVICE WAKEFIELD VA  
1100 PM EST SUN FEB 17 2019  
 
NOTE: "FAIR" INDICATES FEW OR NO CLOUDS BELOW 12,000 FEET WITH NO  
SIGNIFICANT WEATHER AND/OR S TO VISIBILITY
. * = DENOTES  
STATION MAY NOT REPORT PRECIPITATION (E.G., RAIN,SNOW,ETC.),
 
THUNDER OR FOG.  
 
VAZ042-051-052>054-056-180500-  
NORTHERN VIRGINIA  
 
CITY SKY/WX TMP DP RH WIND PRES REMARKS
 
WASH NATIONAL LGT RAIN 37 33 85 S8 29.93F  
DULLES LGT RAIN 34 32 92 S13 29.88F WCI 25  
FORT BELVOIR LGT RAIN 35 33 92 SE5 29.93F  
QUANTICO LGT RAIN 37 36 96 S8 29.94F  
FREDERICKSBRG* RAIN 37 37 100 CALM 29.93F  
STAFFORD* RAIN 37 37 100 CALM 29.96F  
WARRENTON LGT RAIN 37 33 89 S5 29.89F  
CULPEPER* MIX PCPN 36 35 94 S6 29.90F  
MANASSAS* CLOUDY 35 34 96 S8 29.90F  
LEESBURG* CLOUDY 34 34 100 S15 29.86F WCI 24  
WINCHESTER LGT RAIN 32 32 100 S3 29.82F  
FRONT ROYAL* CLOUDY 34 34 100 MISG 29.78F  
LURAY* LGT RAIN 36 36 100 S7 29.79F  

 
 
VAZ048-049-060>072-079>083-180500-  
CENTRAL AND SOUTH CENTRAL VIRGINIA  
 
CITY SKY/WX TMP DP RH WIND PRES REMARKS
 
RICHMOND LGT RAIN 39 37 92 S7 29.93F FOG  
CHESTERFIELD* LGT RAIN 37 37 100 S3 29.94F  
PETERSBURG* LGT RAIN 38 37 95 CALM 29.96F  
HANOVER LGT RAIN 39 37 92 SW5 29.95F FOG  
TAPPAHANNOCK* LGT RAIN 39 39 100 S5 29.94F  
QUINTON* CLOUDY 39 39 100 CALM 29.93F  
CHARLOTTSVILLE LGT RAIN 37 33 85 S10 29.89F  
GORDONSVILLE* CLOUDY 35 35 100 S5 29.90F  
ORANGE* LGT RAIN 34 34 100 S6 29.90F  
LOUISA* LGT RAIN 35 34 98 SW6 29.96F  
BUMPASS* CLOUDY 35 34 95 SW5 29.92F  
FARMVILLE* LGT RAIN 35 35 99 S3 29.92F  
CREWE* CLOUDY 35 33 95 CALM 29.93F  
FORT PICKETT* CLOUDY N/A N/A N/A CALM 29.94F  
CHASE CITY* CLOUDY 37 37 100 CALM 29.93F  
CLARKSVILLE* CLOUDY 36 36 100 CALM 29.93F  
SOUTH HILL* CLOUDY 37 37 100 CALM 29.99F  
LAWRENCEVILLE* CLOUDY 38 37 97 CALM 29.94F  
EMPORIA* CLOUDY 39 39 100 CALM 29.97F  

 
 
VAZ088>098-180500-  
SOUTHEAST VIRGINIA  
 
CITY SKY/WX TMP DP RH WIND PRES REMARKS
 
NORFOLK LGT RAIN 43 42 97 CALM 29.94F FOG  
VIRGINIA BEACH LGT RAIN 42 41 96 N3 29.93F FOG  
NORFOLK NAVAL LGT RAIN 43 42 97 CALM 29.95F FOG  
WEST POINT* CLOUDY 40 40 100 S3 29.97F  
SALUDA* CLOUDY 39 39 100 CALM 29.95F  
NEWPORT NEWS CLOUDY 42 40 92 CALM 29.94F  
LANGLEY AFB LGT RAIN 41 41 100 CALM 29.92F  
FORT EUSTIS LGT RAIN 41 41 100 CALM 29.92F  
WILLIAMSBURG* CLOUDY 43 43 100 CALM 29.96F  
HR EXEC AP* LGT RAIN 42 42 100 CALM 29.95F FOG  
FRANKLIN* DRIZZLE 42 41 98 NW3 29.95F  
US460-WAKEFLD LGT RAIN 41 40 96 CALM 29.95F FOG  

 
 
VAZ020-022-025-037-045-180500-  
WEST CENTRAL AND SOUTHWEST VIRGINIA  
 
CITY SKY/WX TMP DP RH WIND PRES REMARKS
 
STAUNTON* DRIZZLE 35 34 96 SW6 29.85F  
WAYNESBORO* CLOUDY 33 33 99 SE8 29.81F  
HOT SPRINGS VA HVY SNOW 36 36 100 W6 29.79R VSB<1/4  
LYNCHBURG LGT RAIN 34 34 100 CALM 29.91F FOG  
DANVILLE LGT RAIN 37 36 96 CALM 29.92F FOG  
SOUTH BOSTON* CLOUDY 37 35 96 CALM 29.93F  
MARTINSVILLE RAIN 35 35 100 CALM 29.95F  
ROANOKE LGT RAIN 35 33 92 SE5 29.92F  
BLACKSBURG LGT RAIN 35 35 100 CALM 29.90S  
DUBLIN* LGT SNOW 36 36 100 CALM 29.90R  
MARION* LGT RAIN 37 37 100 CALM 29.91R  
HILLSVILLE* RAIN 33 32 96 CALM 29.87R VSB 3/4  
RICHLANDS* RAIN 47 46 97 SW6 29.87R  
WISE* RAIN 48 48 100 SW9 29.86R  
ABINGDON* RAIN 42 42 100 CALM 29.89S  

 
 
MDZ021>025-VAZ099-100-180500-  
SOUTHERN MARYLAND AND THE DELMARVA PENINSULA  
 
CITY SKY/WX TMP DP RH WIND PRES REMARKS
 
PATUXENT RIVER LGT RAIN 39 39 100 CALM 29.94F  
BAY BRIDGE APT LGT RAIN 36 N/A N/A S3 29.94F FOG  
LEONARDTOWN CLOUDY 36 36 100 CALM 29.95F  
DOVER LGT RAIN 37 36 96 E5 29.94F  
GEORGETOWN LGT RAIN 41 41 100 NW3 29.95R  
EASTON RAIN 38 37 95 CALM 29.99F  
CAMBRIDGE CLOUDY 37 37 100 CALM 29.95S FOG  
SALISBURY LGT RAIN 39 39 100 SW3 29.93S  
TANGIER CLOUDY 39 39 100 SE6 29.94F  
OCEAN CITY LGT RAIN 42 41 96 VRB6 29.93F FOG  
WALLOPS ISLAND LGT RAIN 42 41 96 CALM 29.94F  
ACCOMACK* DRIZZLE 41 41 99 CALM 29.95S  

 
 
NCZ012>017-030>032-180500-  
NORTH CENTRAL AND EASTERN NORTH CAROLINA  
 
CITY SKY/WX TMP DP RH WIND PRES REMARKS
 
ROANOKE RAPIDS DRIZZLE 37 37 100 CALM 29.96F  
RALEIGH LGT RAIN 39 38 96 E3 29.91F FOG  
ELIZABETH CITY LGT RAIN 47 44 90 NW9 29.95F  
AHOSKIE* LGT RAIN 42 42 100 CALM 29.95F  
EDENTON* DRIZZLE 48 47 95 NW5 29.96F  
CURRITUCK* DRIZZLE 45 45 100 MISG 29.95S  
KILL DEVIL HLS LGT RAIN 53 53 100 SW3 29.92F  
MANTEO LGT RAIN 53 52 97 S6 29.93F  
CAPE HATTERAS LGT RAIN 63 58 83 S9 29.92F  
TARBORO* NOT AVBL  
GOLDSBORO LGT RAIN 44 42 95 CALM N/A FOG  
WASHINGTON CLOUDY 47 46 96 CALM 29.95F  
GREENVILLE RAIN 45 45 100 CALM 29.98F  
NEW BERN CLOUDY 48 47 96 CALM 29.93F  
WILMINGTON FAIR 51 46 83 CALM 29.94S  

 
 
VAZ048-180500-  
ELSEWHERE  
 
CITY SKY/WX TMP DP RH WIND PRES REMARKS
 
HARRISBURG PA LGT RAIN 33 29 85 E6 29.89F  
BALTIMORE LGT RAIN 34 33 96 SE3 29.92F FOG  
ANNAPOLIS LGT RAIN 38 33 82 S3 29.93F  
ANDREWS AFB LGT RAIN 34 33 95 SE9 29.91F  
PHILADELPHIA LGT RAIN 35 32 88 CALM 29.97R  
HENDERSON NC LGT RAIN 36 35 97 CALM 29.93F  
GREENSBORO LGT RAIN 37 37 100 CALM 29.90F FOG  
ROCKY MOUNT LGT RAIN 41 41 100 CALM 29.95F  

 
 
VAZ100-180500-  
MARINE  
 
STATION/POSITION TIME TEMP WIND PRES WAVE SWELL
 
AIR SEA DIR/SP/G HT/PER HT/PER  
(UTC) (F) (DEG/KT/KT) (MB) (FT/S) (FT/S)  
BRANDYWINE LGT 0336 1014.9R  
CAPE MAY NJ 0342 39 39 120/ 6/ 8 1014.0R  
LEWES DE 0336 40 40 CALM / 2 1014.3R  
15NM E FENWICK I 0350 42 1013.0F 3/ 9  
OCEAN-CITY-INLET 0336 42 40 180/ 8/ 11 1014.3F  
WACHAPREAGUE VA 0348 42 45 CALM / 3 1013.4F  
THOMAS POINT MD 0400 35 38 180/ 3/ 3 1014.6F  
COVE POINT MD 0348 38 200/ 9/ 11 N/A  
SOLOMONS ISLAND 0348 38 39 CALM 1013.8F  
BISHOPS HEAD MD 0348 39 42 170/ 8/ 11 1014.1F  
PINEY POINT MD 0336 210/ 4/ 5 N/A  
CAMBRIDGE MD 0336 38 40 1014.4F  
LEWISETTA VA 0336 39 40 210/ 7/ 8 1013.9F  
RAPPAHANNOCK LGT 0336 190/ 2/ 2 1015.1S  
YORK RVR RNG VA 0348 41 80/ 2/ 3 1014.8F  
YORKTOWN VA 0336 41 44 90/ 2/ 4 1014.1F  
DOMINION TERM VA 0336 42 CALM / 1 1014.7F  
KIPTOPEKE VA 0336 44 CALM / 1 N/A  
CAPE HENRY VA 0336 42 310/ 4/ 5 1012.5F  
WILLOUBY STN VA 0336 42 CALM / 2 1013.8F  
S CRANEY ISL VA 0336 42 CALM / 2 1014.2F  
CAPE HENRY BUOY 0400 44 N/A 3/ 8  
1ST LANDING BUOY 0400 42 44 340/ 4/ 4 1014.0 1/ 5  
64NM E OF VA BCH 0350 58 54 190/ 14/ 16 1012.7F 4/ 8 3/ 8  
DUCK PIER NC 0336 50 45 200/ 11/ 15 1012.4F  
44100 DUCK FRF 0345 45 N/A 4/ 8 2/11  
OREGON INLET NC 0336 53 47 180/ 5/ 6 1013.4F  
HATTERAS NC 0336 62 55 170/ 10/ 15 1013.5F  
CAPE LOOKOUT NC 0400 180/ 10/ 10 1012.9F  

 
 
 
CLICK HERE TO GO TO PREVIOUS BULLETINS.

The Nexlab VA Page
The Nexlab NC Page
The Nexlab MD Page Main Text Page